Weather History for Little Rock AFB, AR

Change the Weather History Date:

Sunday, July 14, 2013

  Actual Average Record
Temperature  
Mean Temperature 74 °F -  
Max Temperature 89 °F 91 °F 107 °F (1980)
Min Temperature 62 °F 69 °F 58 °F (1967)
Cooling Degree Days 10    
Growing Degree Days 24 (Base 50)    
Moisture  
Dew Point 65 °F    
Average Humidity 68    
Maximum Humidity 89    
Minimum Humidity 49    
Precipitation  
Precipitation 0.01 in - - ()
Sea Level Pressure  
Sea Level Pressure 30.01 in    
Wind  
Wind Speed 4 mph (ENE)    
Max Wind Speed 18 mph    
Max Gust Speed -    
Visibility 10 miles    
Events Rain    
Averages and records for this station are not official NWS values.
T = Trace of Precipitation, MM = Missing Value Source: NWS Daily Summary

Daily Weather History Graph

Daily Weather History Graph

Search for Another Location

Airport:

Trip Planner

Search our weather history database for the weather conditions in past years. The results will help you decide how hot, cold, wet, or windy it might be!

Date:

Astronomy

Jul. 14, 2013 Rise Set
Actual Time 6:05 AM CDT 8:22 PM CDT
Civil Twilight 5:36 AM CDT 8:51 PM CDT
Nautical Twilight 5:01 AM CDT 9:27 PM CDT
Astronomical Twilight 4:22 AM CDT 10:05 PM CDT
Moon 12:06 PM CDT (7/14) 11:53 PM CDT (7/14)
Length of Visible Light 15h 15m
Length of Day
14h 17m
Waxing Crescent, 35% of the Moon is Illuminated
Jul 14
Waxing Crescent
Jul 15
First Quarter
Jul 22
Full
Jul 29
Last Quarter
Aug 6
New

Hourly Weather History & Observations

Time (CDT) Temp. Heat Index Dew Point Humidity Pressure Visibility Wind Dir Wind Speed Gust Speed Precip Events Conditions
1:58 AM 64.8 °F - 60.1 °F 85% 29.99 in 10.0 mi Calm Calm - N/A   Clear
2:59 AM 63.0 °F - 59.5 °F 89% 29.98 in 10.0 mi Calm Calm - N/A   Clear
3:55 AM 64.6 °F - 60.3 °F 86% 29.99 in 10.0 mi Calm Calm - N/A   Clear
4:55 AM 62.6 °F - 59.4 °F 89% 29.98 in 10.0 mi Calm Calm - N/A   Clear
5:55 AM 62.6 °F - 59.4 °F 89% 29.98 in 10.0 mi Calm Calm - N/A   Clear
6:55 AM 64.2 °F - 60.4 °F 87% 30.00 in 10.0 mi Calm Calm - N/A   Clear
7:59 AM 68.5 °F - 61.7 °F 79% 30.01 in 10.0 mi Calm Calm - N/A   Clear
8:58 AM 76.3 °F - 63.3 °F 64% 30.02 in 10.0 mi NNE 4.6 mph - N/A   Clear
9:58 AM 77.4 °F - 64.2 °F 64% 30.04 in 10.0 mi NE 9.2 mph - N/A   Clear
10:58 AM 82.2 °F 83.8 °F 64.6 °F 55% 30.04 in 10.0 mi Variable 4.6 mph - N/A   Clear
11:58 AM 85.3 °F 86.8 °F 64.9 °F 50% 30.04 in 10.0 mi Variable 4.6 mph - N/A   Clear
12:58 PM 87.1 °F 89.2 °F 66.0 °F 49% 30.03 in 10.0 mi East 9.2 mph - N/A   Scattered Clouds
1:46 PM 86.0 °F 89.4 °F 68.0 °F 55% 30.02 in 10.0 mi East 9.2 mph - N/A   Light Drizzle
1:55 PM 87.8 °F 91.4 °F 68.0 °F 52% 30.01 in 10.0 mi Variable 6.9 mph - N/A   Mostly Cloudy
1:58 PM 87.8 °F 91.4 °F 68.0 °F 52% 30.01 in 10.0 mi Variable 3.5 mph - 0.00 in   Mostly Cloudy
2:45 PM 86.0 °F 90.4 °F 69.8 °F 58% 30.01 in 8.0 mi East 13.8 mph - N/A Rain Light Rain
2:50 PM 82.4 °F 87.2 °F 71.6 °F 70% 30.01 in 2.5 mi ENE 15.0 mph - N/A Rain Rain
3:05 PM 80.6 °F 84.6 °F 71.6 °F 74% 30.00 in 9.0 mi ENE 18.4 mph - N/A Rain Light Rain
3:08 PM 80.6 °F 83.9 °F 69.8 °F 70% 30.00 in 10.0 mi East 16.1 mph - N/A   Scattered Clouds
3:58 PM 82.9 °F 85.6 °F 67.5 °F 59% 29.99 in 10.0 mi Variable 5.8 mph - 0.01 in   Partly Cloudy
4:58 PM 81.1 °F 83.9 °F 67.8 °F 64% 30.00 in 10.0 mi ENE 5.8 mph - N/A   Partly Cloudy
5:58 PM 82.4 °F 85.6 °F 68.7 °F 63% 29.99 in 10.0 mi ENE 6.9 mph - N/A   Partly Cloudy
6:59 PM 80.6 °F 82.9 °F 66.9 °F 63% 30.00 in 10.0 mi ENE 6.9 mph - N/A   Partly Cloudy